| time (UTC) | temp C | wind direction | speed KPH | gust KPH | rain 1hr cm | rain 24hr cm | rain mn cm | humidity % | barometer mb |
| 20260507021504 | 5 | 289 | 1.6 | 6.4 | 0.00 | 2.29 | 0.03 | 99 | 1010.6 |
| 20260507021004 | 5 | 340 | 1.6 | 9.7 | 0.00 | 2.29 | 0.03 | 99 | 1010.9 |
| 20260507020505 | 5 | 12 | 1.6 | 11.3 | 0.00 | 2.29 | 0.03 | 99 | 1010.9 |
| 20260507020005 | 5 | 349 | 1.6 | 11.3 | 0.00 | 2.29 | 0.03 | 99 | 1011.0 |
| 20260507015504 | 5 | 339 | 1.6 | 4.8 | 0.00 | 2.29 | 0.03 | 99 | 1010.9 |
| 20260507015004 | 5 | 332 | 1.6 | 4.8 | 0.00 | 2.29 | 0.03 | 99 | 1010.9 |
| 20260507014504 | 5 | 322 | 1.6 | 4.8 | 0.00 | 2.29 | 0.03 | 99 | 1010.9 |
| 20260507014004 | 5 | 337 | 1.6 | 9.7 | 0.00 | 2.29 | 0.03 | 99 | 1010.9 |
| 20260507013504 | 5 | 347 | 1.6 | 9.7 | 0.00 | 2.29 | 0.03 | 99 | 1010.8 |
| 20260507013005 | 4 | 339 | 1.6 | 9.7 | 0.00 | 2.29 | 0.03 | 99 | 1010.9 |
| 20260507012504 | 4 | 326 | 1.6 | 9.7 | 0.00 | 2.29 | 0.03 | 99 | 1010.7 |
| 20260507012004 | 5 | 324 | 1.6 | 9.7 | 0.00 | 2.29 | 0.03 | 99 | 1010.5 |
| 20260507011525 | 4 | 340 | 1.6 | 11.3 | 0.00 | 2.29 | 0.03 | 99 | 1010.5 |
| 20260507011005 | 4 | 317 | 1.6 | 11.3 | 0.00 | 2.29 | 0.03 | 99 | 1010.6 |
| 20260507010504 | 4 | 314 | 1.6 | 14.5 | 0.00 | 2.29 | 0.03 | 99 | 1010.4 |
| 20260507010026 | 4 | 346 | 1.6 | 14.5 | 0.00 | 2.29 | 0.03 | 99 | 1010.4 |
| 20260507005504 | 4 | 341 | 1.6 | 6.4 | 0.00 | 2.29 | 0.03 | 99 | 1010.2 |
| 20260507005004 | 4 | 336 | 1.6 | 6.4 | 0.00 | 2.29 | 0.03 | 99 | 1010.2 |
| 20260507004504 | 4 | 325 | 1.6 | 6.4 | 0.00 | 2.29 | 0.03 | 99 | 1010.1 |
| 20260507004005 | 4 | 315 | 0.0 | 4.8 | 0.00 | 2.29 | 0.03 | 99 | 1010.3 |
| 20260507003505 | 4 | 337 | 1.6 | 6.4 | 0.00 | 2.29 | 0.03 | 99 | 1010.3 |
| 20260507003025 | 4 | 352 | 1.6 | 6.4 | 0.00 | 2.29 | 0.03 | 99 | 1010.3 |
| 20260507002504 | 4 | 357 | 1.6 | 6.4 | 0.00 | 2.29 | 0.03 | 99 | 1010.2 |
| 20260507002005 | 4 | 4 | 1.6 | 9.7 | 0.00 | 2.29 | 0.03 | 99 | 1010.2 |
| 20260507001525 | 5 | 342 | 1.6 | 9.7 | 0.00 | 2.29 | 0.03 | 99 | 1010.3 |
| 20260507001005 | 5 | 346 | 1.6 | 9.7 | 0.00 | 2.29 | 0.03 | 99 | 1010.3 |
| 20260507000504 | 5 | 360 | 1.6 | 9.7 | 0.00 | 2.29 | 0.03 | 99 | 1010.2 |
| 20260507000005 | 5 | 329 | 1.6 | 14.5 | 0.00 | 2.29 | 0.03 | 99 | 1010.0 |
| 20260506235505 | 5 | 328 | 3.2 | 14.5 | 0.00 | 2.29 | 0.03 | 99 | 1009.9 |
| 20260506235004 | 5 | 337 | 3.2 | 9.7 | 0.00 | 2.29 | 0.03 | 99 | 1010.0 |
| 20260506234504 | 5 | 336 | 3.2 | 12.9 | 0.00 | 2.29 | 0.03 | 99 | 1009.9 |
| 20260506234005 | 5 | 332 | 3.2 | 12.9 | 0.00 | 2.29 | 0.03 | 99 | 1010.0 |
| 20260506233526 | 5 | 324 | 3.2 | 9.7 | 0.00 | 2.29 | 0.03 | 99 | 1010.1 |
| 20260506233004 | 5 | 331 | 3.2 | 9.7 | 0.00 | 2.29 | 0.03 | 99 | 1010.1 |
| 20260506232504 | 5 | 348 | 3.2 | 11.3 | 0.00 | 2.29 | 0.03 | 99 | 1010.2 |
| 20260506232005 | 5 | 344 | 3.2 | 11.3 | 0.00 | 2.29 | 0.00 | 99 | 1010.2 |
| 20260506231505 | 5 | 349 | 1.6 | 9.7 | 0.00 | 2.29 | 0.00 | 99 | 1010.2 |
| 20260506231004 | 5 | 358 | 1.6 | 6.4 | 0.00 | 2.29 | 0.00 | 99 | 1010.3 |
| 20260506230525 | 5 | 312 | 1.6 | 6.4 | 0.00 | 2.29 | 0.00 | 99 | 1010.4 |
| 20260506230004 | 5 | 313 | 1.6 | 11.3 | 0.00 | 2.29 | 0.00 | 99 | 1010.3 |
| 20260506225525 | 5 | 319 | 1.6 | 11.3 | 0.00 | 2.29 | 0.00 | 99 | 1010.4 |
| 20260506225005 | 5 | 294 | 1.6 | 11.3 | 0.00 | 2.29 | 0.00 | 99 | 1010.1 |
| 20260506224505 | 5 | 307 | 1.6 | 4.8 | 0.00 | 2.29 | 0.00 | 99 | 1010.3 |
| 20260506224004 | 5 | 356 | 1.6 | 6.4 | 0.03 | 2.29 | 0.00 | 99 | 1010.3 |
| 20260506223505 | 5 | 11 | 1.6 | 6.4 | 0.03 | 2.29 | 0.00 | 99 | 1010.3 |
| 20260506223005 | 5 | 5 | 0.0 | 6.4 | 0.03 | 2.29 | 0.00 | 99 | 1010.3 |
| 20260506222504 | 5 | 356 | 0.0 | 9.7 | 0.03 | 2.29 | 0.00 | 99 | 1010.2 |
| 20260506222004 | 5 | 349 | 1.6 | 9.7 | 0.00 | 2.26 | 0.00 | 99 | 1010.2 |
| 20260506221505 | 5 | 345 | 1.6 | 4.8 | 0.00 | 2.26 | 0.00 | 99 | 1010.2 |
| 20260506221004 | 5 | 346 | 0.0 | 4.8 | 0.00 | 2.26 | 0.00 | 99 | 1010.1 |
| 20260506220526 | 5 | 341 | 1.6 | 4.8 | 0.00 | 2.26 | 0.00 | 99 | 1010.1 |
| 20260506220005 | 5 | 297 | 1.6 | 4.8 | 0.00 | 2.26 | 0.00 | 99 | 1010.0 |
| 20260506215504 | 5 | 286 | 1.6 | 4.8 | 0.00 | 2.26 | 2.26 | 99 | 1009.9 |
| 20260506215026 | 5 | 294 | 1.6 | 9.7 | 0.00 | 2.26 | 2.26 | 99 | 1010.1 |
| 20260506214503 | 5 | 305 | 1.6 | 9.7 | 0.00 | 2.26 | 2.26 | 99 | 1009.9 |
| 20260506214025 | 5 | 338 | 1.6 | 9.7 | 0.00 | 2.26 | 2.26 | 99 | 1009.9 |
| 20260506213505 | 5 | 335 | 1.6 | 9.7 | 0.00 | 2.26 | 2.26 | 99 | 1009.8 |
| 20260506213004 | 5 | 326 | 1.6 | 6.4 | 0.00 | 2.26 | 2.26 | 99 | 1009.8 |
| 20260506212504 | 5 | 317 | 1.6 | 4.8 | 0.00 | 2.26 | 2.26 | 99 | 1009.9 |
| 20260506212025 | 5 | 300 | 1.6 | 4.8 | 0.00 | 2.26 | 2.26 | 99 | 1009.8 |
| 20260506211505 | 5 | 291 | 0.0 | 6.4 | 0.00 | 2.26 | 2.26 | 99 | 1009.8 |
| 20260506211004 | 5 | 292 | 0.0 | 6.4 | 0.00 | 2.26 | 2.26 | 99 | 1010.0 |
| 20260506210504 | 5 | 309 | 0.0 | 3.2 | 0.00 | 2.26 | 2.26 | 99 | 1009.8 |
| 20260506210025 | 5 | 309 | 1.6 | 6.4 | 0.00 | 2.26 | 2.26 | 99 | 1009.9 |
| 20260506205504 | 5 | 279 | 1.6 | 6.4 | 0.00 | 2.26 | 2.26 | 99 | 1009.7 |
| 20260506205004 | 5 | 245 | 0.0 | 3.2 | 0.00 | 2.26 | 2.26 | 99 | 1009.7 |
| 20260506204504 | 5 | 252 | 1.6 | 4.8 | 0.00 | 2.26 | 2.26 | 99 | 1009.5 |
| 20260506204004 | 5 | 302 | 1.6 | 6.4 | 0.00 | 2.26 | 2.26 | 99 | 1009.5 |
| 20260506203524 | 5 | 323 | 1.6 | 6.4 | 0.00 | 2.26 | 2.26 | 99 | 1009.6 |
| 20260506203005 | 5 | 321 | 1.6 | 6.4 | 0.00 | 2.26 | 2.26 | 99 | 1009.6 |
| 20260506202504 | 5 | 347 | 1.6 | 9.7 | 0.00 | 2.26 | 2.26 | 99 | 1009.6 |
| 20260506202004 | 5 | 353 | 1.6 | 9.7 | 0.00 | 2.26 | 2.26 | 99 | 1009.5 |
| 20260506201504 | 5 | 30 | 1.6 | 9.7 | 0.00 | 2.26 | 2.26 | 99 | 1009.4 |
| 20260506201025 | 5 | 1 | 1.6 | 9.7 | 0.00 | 2.26 | 2.26 | 99 | 1009.2 |
| 20260506200525 | 5 | 297 | 1.6 | 6.4 | 0.00 | 2.26 | 2.26 | 99 | 1009.3 |
| 20260506200004 | 5 | 285 | 1.6 | 6.4 | 0.00 | 2.26 | 2.26 | 99 | 1009.1 |
| 20260506195524 | 5 | 281 | 1.6 | 6.4 | 0.00 | 2.26 | 2.26 | 99 | 1009.3 |
| 20260506195005 | 5 | 246 | 1.6 | 4.8 | 0.00 | 2.26 | 2.26 | 99 | 1009.2 |
| 20260506194526 | 5 | 250 | 1.6 | 4.8 | 0.00 | 2.26 | 2.26 | 99 | 1009.1 |
| 20260506194004 | 5 | 43 | 1.6 | 6.4 | 0.00 | 2.26 | 2.26 | 99 | 1009.2 |
| 20260506193504 | 5 | 33 | 1.6 | 9.7 | 0.00 | 2.26 | 2.26 | 99 | 1009.2 |
| 20260506193004 | 5 | 333 | 1.6 | 9.7 | 0.00 | 2.26 | 2.26 | 99 | 1009.3 |
| 20260506192524 | 5 | 329 | 1.6 | 6.4 | 0.00 | 2.26 | 2.26 | 99 | 1009.3 |
| 20260506192004 | 5 | 315 | 1.6 | 6.4 | 0.00 | 2.26 | 2.26 | 99 | 1009.2 |
| 20260506191504 | 5 | 320 | 1.6 | 4.8 | 0.00 | 2.26 | 2.26 | 99 | 1009.1 |
| 20260506191004 | 5 | 326 | 0.0 | 6.4 | 0.00 | 2.26 | 2.26 | 99 | 1009.1 |
| 20260506190503 | 5 | 326 | 1.6 | 6.4 | 0.00 | 2.26 | 2.26 | 99 | 1009.0 |
| 20260506190005 | 5 | 341 | 1.6 | 6.4 | 0.00 | 2.26 | 2.26 | 99 | 1008.9 |
| 20260506185504 | 5 | 305 | 1.6 | 11.3 | 0.00 | 2.26 | 2.26 | 99 | 1008.9 |
| 20260506185005 | 5 | 344 | 1.6 | 11.3 | 0.00 | 2.26 | 2.26 | 99 | 1008.9 |
| 20260506184504 | 5 | 2 | 1.6 | 6.4 | 0.03 | 2.26 | 2.26 | 99 | 1008.8 |
| 20260506184004 | 5 | 243 | 1.6 | 11.3 | 0.00 | 2.26 | 2.26 | 99 | 1009.0 |
| 20260506183524 | 5 | 270 | 1.6 | 11.3 | 0.00 | 2.26 | 2.26 | 99 | 1008.8 |
| 20260506183005 | 5 | 267 | 1.6 | 6.4 | 0.03 | 2.26 | 2.26 | 99 | 1008.8 |
| 20260506182504 | 5 | 246 | 1.6 | 9.7 | 0.03 | 2.26 | 2.26 | 99 | 1008.8 |
| 20260506182004 | 5 | 244 | 1.6 | 9.7 | 0.03 | 2.26 | 2.26 | 99 | 1008.6 |
| 20260506181524 | 5 | 274 | 1.6 | 6.4 | 0.03 | 2.26 | 2.26 | 99 | 1008.9 |
| 20260506181004 | 5 | 294 | 1.6 | 4.8 | 0.05 | 2.26 | 2.26 | 99 | 1008.8 |
| 20260506180503 | 5 | 124 | 1.6 | 4.8 | 0.05 | 2.26 | 2.26 | 99 | 1008.7 |
| 20260506180006 | 5 | 74 | 1.6 | 11.3 | 0.05 | 2.26 | 2.26 | 99 | 1008.7 |
| 20260506175525 | 5 | 14 | 1.6 | 11.3 | 0.05 | 2.26 | 2.26 | 99 | 1008.5 |
| 20260506175004 | 5 | 345 | 1.6 | 11.3 | 0.05 | 2.26 | 2.26 | 99 | 1008.5 |
| 20260506174505 | 5 | 344 | 1.6 | 11.3 | 0.05 | 2.24 | 2.24 | 99 | 1008.4 |
| 20260506174004 | 5 | 13 | 1.6 | 6.4 | 0.05 | 2.24 | 2.24 | 99 | 1008.3 |
| 20260506173525 | 5 | 337 | 1.6 | 6.4 | 0.05 | 2.24 | 2.24 | 99 | 1008.3 |
| 20260506173025 | 5 | 332 | 1.6 | 6.4 | 0.05 | 2.24 | 2.24 | 99 | 1008.5 |
| 20260506172504 | 5 | 12 | 1.6 | 9.7 | 0.08 | 2.24 | 2.24 | 99 | 1008.4 |
| 20260506172026 | 5 | 2 | 1.6 | 11.3 | 0.05 | 2.21 | 2.21 | 99 | 1008.3 |
| 20260506171504 | 5 | 323 | 1.6 | 11.3 | 0.05 | 2.21 | 2.21 | 99 | 1008.2 |
| 20260506171003 | 5 | 319 | 1.6 | 3.2 | 0.05 | 2.21 | 2.21 | 99 | 1008.4 |
| 20260506170505 | 5 | 274 | 1.6 | 3.2 | 0.05 | 2.21 | 2.21 | 99 | 1008.5 |
| 20260506170005 | 5 | 286 | 1.6 | 6.4 | 0.05 | 2.21 | 2.21 | 99 | 1008.4 |
| 20260506165525 | 5 | 355 | 1.6 | 17.7 | 0.05 | 2.21 | 2.21 | 99 | 1008.4 |
| 20260506165003 | 5 | 16 | 3.2 | 17.7 | 0.05 | 2.18 | 2.18 | 99 | 1008.4 |
| 20260506164505 | 5 | 26 | 1.6 | 14.5 | 0.05 | 2.18 | 2.18 | 99 | 1008.2 |
| 20260506164004 | 5 | 18 | 1.6 | 12.9 | 0.05 | 2.18 | 2.18 | 99 | 1008.2 |
| 20260506163503 | 5 | 359 | 1.6 | 6.4 | 0.05 | 2.18 | 2.18 | 99 | 1008.1 |
| 20260506163005 | 5 | 326 | 1.6 | 9.7 | 0.03 | 2.16 | 2.16 | 99 | 1008.1 |
| 20260506162504 | 5 | 323 | 1.6 | 12.9 | 0.03 | 2.16 | 2.16 | 99 | 1008.1 |
| 20260506162004 | 5 | 332 | 1.6 | 12.9 | 0.03 | 2.16 | 2.16 | 99 | 1008.0 |
| 20260506161505 | 5 | 347 | 1.6 | 9.7 | 0.05 | 2.16 | 2.16 | 99 | 1008.2 |
| 20260506161004 | 5 | 29 | 1.6 | 9.7 | 0.05 | 2.16 | 2.16 | 99 | 1008.1 |
| 20260506160503 | 5 | 17 | 1.6 | 9.7 | 0.05 | 2.16 | 2.16 | 99 | 1008.1 |
| 20260506160004 | 5 | 339 | 1.6 | 6.4 | 0.05 | 2.16 | 2.16 | 99 | 1008.1 |
| 20260506155504 | 5 | 312 | 1.6 | 6.4 | 0.05 | 2.16 | 2.16 | 99 | 1008.0 |
| 20260506155005 | 5 | 280 | 1.6 | 9.7 | 0.05 | 2.16 | 2.16 | 99 | 1008.0 |
| 20260506154504 | 5 | 302 | 1.6 | 9.7 | 0.05 | 2.16 | 2.16 | 99 | 1007.9 |
| 20260506154025 | 5 | 23 | 3.2 | 12.9 | 0.08 | 2.13 | 2.13 | 99 | 1007.9 |
| 20260506153503 | 5 | 16 | 3.2 | 12.9 | 0.08 | 2.13 | 2.13 | 99 | 1007.8 |
| 20260506153003 | 5 | 318 | 1.6 | 12.9 | 0.10 | 2.13 | 2.13 | 99 | 1007.8 |
| 20260506152504 | 5 | 320 | 1.6 | 9.7 | 0.08 | 2.13 | 2.13 | 99 | 1007.9 |
| 20260506152003 | 5 | 329 | 1.6 | 6.4 | 0.08 | 2.13 | 2.13 | 99 | 1007.9 |
| 20260506151504 | 5 | 316 | 1.6 | 11.3 | 0.08 | 2.11 | 2.11 | 99 | 1008.0 |
| 20260506151004 | 5 | 322 | 1.6 | 11.3 | 0.08 | 2.11 | 2.11 | 99 | 1007.8 |
| 20260506150503 | 5 | 330 | 1.6 | 9.7 | 0.08 | 2.11 | 2.11 | 99 | 1007.9 |
| 20260506150026 | 5 | 293 | 1.6 | 6.4 | 0.08 | 2.11 | 2.11 | 99 | 1008.0 |
| 20260506145504 | 5 | 289 | 1.6 | 3.2 | 0.08 | 2.11 | 2.11 | 99 | 1007.8 |
| 20260506145005 | 5 | 300 | 1.6 | 3.2 | 0.08 | 2.11 | 2.08 | 99 | 1008.0 |
| 20260506144504 | 5 | 6 | 1.6 | 9.7 | 0.10 | 2.11 | 2.08 | 99 | 1008.0 |
| 20260506144024 | 5 | 83 | 1.6 | 9.7 | 0.08 | 2.08 | 2.08 | 99 | 1008.1 |
| 20260506143503 | 5 | 277 | 1.6 | 4.8 | 0.08 | 2.06 | 2.06 | 99 | 1008.1 |
| 20260506143005 | 5 | 328 | 1.6 | 4.8 | 0.10 | 2.06 | 2.06 | 99 | 1008.1 |
| 20260506142504 | 5 | 55 | 1.6 | 4.8 | 0.10 | 2.06 | 2.06 | 99 | 1008.1 |
| 20260506142003 | 5 | 46 | 1.6 | 3.2 | 0.13 | 2.06 | 2.06 | 99 | 1008.1 |
| 20260506141504 | 5 | 323 | 1.6 | 4.8 | 0.13 | 2.06 | 2.06 | 98 | 1008.3 |
| 20260506141003 | 5 | 354 | 1.6 | 9.7 | 0.13 | 2.06 | 2.03 | 98 | 1008.1 |
| 20260506140503 | 5 | 54 | 1.6 | 9.7 | 0.13 | 2.06 | 2.03 | 98 | 1008.1 |
| 20260506140005 | 5 | 229 | 1.6 | 4.8 | 0.13 | 2.06 | 2.03 | 98 | 1008.2 |
| 20260506135504 | 5 | 249 | 1.6 | 4.8 | 0.10 | 2.03 | 2.03 | 98 | 1008.0 |
| 20260506135004 | 5 | 9 | 1.6 | 9.7 | 0.10 | 2.03 | 2.01 | 98 | 1007.8 |
| 20260506134504 | 5 | 347 | 1.6 | 9.7 | 0.10 | 2.03 | 2.01 | 98 | 1008.1 |
| 20260506134004 | 5 | 335 | 1.6 | 6.4 | 0.08 | 2.01 | 1.98 | 98 | 1007.8 |
| 20260506133504 | 5 | 359 | 1.6 | 4.8 | 0.08 | 2.01 | 1.98 | 98 | 1008.0 |
| 20260506133003 | 5 | 350 | 1.6 | 6.4 | 0.05 | 1.98 | 1.96 | 98 | 1007.7 |
| 20260506132504 | 5 | 326 | 1.6 | 6.4 | 0.03 | 1.96 | 1.93 | 98 | 1007.8 |
| 20260506132005 | 5 | 288 | 1.6 | 9.7 | 0.03 | 1.96 | 1.93 | 98 | 1007.8 |
| 20260506131504 | 5 | 335 | 3.2 | 12.9 | 0.00 | 1.93 | 1.93 | 98 | 1008.0 |
| 20260506131004 | 5 | 36 | 1.6 | 12.9 | 0.00 | 1.93 | 1.91 | 98 | 1008.0 |
| 20260506130503 | 5 | 48 | 1.6 | 12.9 | 0.00 | 1.93 | 1.91 | 98 | 1007.9 |
| 20260506130005 | 5 | 55 | 1.6 | 12.9 | 0.00 | 1.93 | 1.91 | 98 | 1007.9 |
| 20260506125503 | 5 | 94 | 1.6 | 12.9 | 0.00 | 1.93 | 1.91 | 98 | 1007.6 |
| 20260506125003 | 5 | 171 | 1.6 | 6.4 | 0.00 | 1.96 | 1.91 | 98 | 1007.8 |
| 20260506124503 | 5 | 292 | 1.6 | 4.8 | 0.00 | 1.96 | 1.91 | 98 | 1007.8 |
| 20260506124004 | 5 | 335 | 1.6 | 4.8 | 0.00 | 1.96 | 1.91 | 98 | 1008.0 |
| 20260506123503 | 5 | 30 | 1.6 | 4.8 | 0.00 | 1.98 | 1.91 | 98 | 1007.9 |
| 20260506123024 | 5 | 47 | 1.6 | 9.7 | 0.00 | 1.98 | 1.91 | 98 | 1007.9 |
| 20260506122504 | 5 | 45 | 3.2 | 11.3 | 0.03 | 1.98 | 1.91 | 99 | 1007.7 |
| 20260506122003 | 5 | 21 | 1.6 | 11.3 | 0.05 | 2.01 | 1.91 | 99 | 1007.7 |
| 20260506121503 | 5 | 5 | 3.2 | 14.5 | 0.05 | 2.01 | 1.91 | 99 | 1007.7 |
| 20260506121004 | 5 | 9 | 3.2 | 14.5 | 0.05 | 2.03 | 1.91 | 99 | 1007.6 |
| 20260506120503 | 5 | 327 | 1.6 | 12.9 | 0.05 | 2.03 | 1.91 | 99 | 1007.5 |
| 20260506120005 | 5 | 336 | 3.2 | 11.3 | 0.05 | 2.03 | 1.91 | 99 | 1007.6 |
| 20260506115525 | 5 | 8 | 3.2 | 14.5 | 0.05 | 2.03 | 1.91 | 99 | 1007.8 |
| 20260506115003 | 5 | 17 | 3.2 | 14.5 | 0.05 | 2.03 | 1.91 | 99 | 1007.8 |
| 20260506114504 | 5 | 15 | 1.6 | 9.7 | 0.08 | 2.06 | 1.91 | 99 | 1007.7 |
| 20260506114004 | 5 | 3 | 3.2 | 12.9 | 0.08 | 2.06 | 1.91 | 99 | 1007.8 |
| 20260506113504 | 5 | 358 | 3.2 | 16.1 | 0.10 | 2.08 | 1.91 | 99 | 1007.6 |
| 20260506113004 | 5 | 48 | 3.2 | 16.1 | 0.15 | 2.08 | 1.91 | 99 | 1007.8 |
| 20260506112504 | 5 | 57 | 3.2 | 11.3 | 0.15 | 2.08 | 1.88 | 99 | 1007.6 |
| 20260506112024 | 5 | 46 | 3.2 | 11.3 | 0.18 | 2.08 | 1.88 | 99 | 1007.4 |
| 20260506111503 | 5 | 35 | 1.6 | 9.7 | 0.18 | 2.06 | 1.85 | 99 | 1007.2 |
| 20260506111004 | 5 | 16 | 1.6 | 12.9 | 0.25 | 2.08 | 1.85 | 99 | 1007.5 |
| 20260506110503 | 5 | 31 | 3.2 | 14.5 | 0.33 | 2.08 | 1.85 | 99 | 1007.2 |
| 20260506110024 | 6 | 52 | 3.2 | 14.5 | 0.41 | 2.08 | 1.85 | 99 | 1007.3 |
| 20260506105525 | 6 | 30 | 1.6 | 9.7 | 0.46 | 2.08 | 1.85 | 99 | 1007.2 |
| 20260506105004 | 6 | 328 | 3.2 | 11.3 | 0.51 | 2.08 | 1.85 | 99 | 1007.2 |
| 20260506104504 | 6 | 324 | 3.2 | 17.7 | 0.53 | 2.06 | 1.83 | 99 | 1007.2 |
| 20260506104004 | 6 | 341 | 3.2 | 17.7 | 0.64 | 2.06 | 1.83 | 99 | 1006.9 |
| 20260506103503 | 6 | 340 | 1.6 | 11.3 | 0.66 | 2.03 | 1.78 | 99 | 1007.3 |
| 20260506103025 | 6 | 343 | 1.6 | 12.9 | 0.66 | 1.98 | 1.75 | 99 | 1007.3 |
| 20260506102504 | 6 | 359 | 1.6 | 12.9 | 0.74 | 1.96 | 1.73 | 99 | 1007.2 |
| 20260506102004 | 6 | 310 | 1.6 | 6.4 | 0.76 | 1.93 | 1.70 | 99 | 1007.4 |
| 20260506101524 | 6 | 306 | 1.6 | 6.4 | 0.81 | 1.91 | 1.68 | 99 | 1007.2 |
| 20260506101003 | 6 | 1 | 1.6 | 9.7 | 0.79 | 1.83 | 1.60 | 99 | 1007.2 |
| 20260506100503 | 6 | 14 | 1.6 | 9.7 | 0.76 | 1.75 | 1.52 | 99 | 1007.3 |
| 20260506100004 | 6 | 12 | 1.6 | 4.8 | 0.76 | 1.70 | 1.45 | 99 | 1007.6 |
| 20260506095504 | 6 | 20 | 1.6 | 6.4 | 0.74 | 1.63 | 1.40 | 99 | 1007.9 |
| 20260506095003 | 6 | 8 | 1.6 | 6.4 | 0.74 | 1.57 | 1.35 | 99 | 1008.0 |
| 20260506094504 | 6 | 344 | 1.6 | 4.8 | 0.71 | 1.52 | 1.30 | 99 | 1007.8 |
| 20260506094005 | 6 | 330 | 1.6 | 6.4 | 0.66 | 1.42 | 1.19 | 99 | 1008.1 |
| 20260506093503 | 6 | 327 | 1.6 | 6.4 | 0.64 | 1.37 | 1.14 | 99 | 1008.3 |
| 20260506093004 | 6 | 3 | 1.6 | 11.3 | 0.64 | 1.32 | 1.09 | 99 | 1008.2 |
| 20260506092504 | 6 | 37 | 1.6 | 11.3 | 0.56 | 1.22 | 0.99 | 98 | 1007.5 |
| 20260506092004 | 6 | 324 | 1.6 | 6.4 | 0.53 | 1.17 | 0.94 | 99 | 1007.7 |
| 20260506091503 | 6 | 311 | 1.6 | 4.8 | 0.48 | 1.09 | 0.86 | 99 | 1007.6 |
| 20260506091004 | 6 | 294 | 1.6 | 4.8 | 0.48 | 1.04 | 0.81 | 99 | 1007.6 |
| 20260506090503 | 7 | 274 | 1.6 | 6.4 | 0.43 | 0.99 | 0.76 | 98 | 1007.9 |
| 20260506090003 | 7 | 297 | 1.6 | 6.4 | 0.41 | 0.94 | 0.71 | 99 | 1008.0 |
| 20260506085524 | 7 | 317 | 1.6 | 4.8 | 0.41 | 0.89 | 0.66 | 98 | 1008.1 |
| 20260506085027 | 7 | 344 | 1.6 | 6.4 | 0.38 | 0.84 | 0.61 | 99 | 1007.7 |
| 20260506084525 | 7 | 331 | 1.6 | 6.4 | 0.38 | 0.81 | 0.58 | 98 | 1007.5 |
| 20260506084005 | 7 | 295 | 1.6 | 4.8 | 0.36 | 0.76 | 0.53 | 99 | 1007.5 |
| 20260506083527 | 7 | 300 | 1.6 | 4.8 | 0.36 | 0.74 | 0.51 | 98 | 1007.6 |
| 20260506083027 | 7 | 319 | 1.6 | 4.8 | 0.36 | 0.71 | 0.48 | 98 | 1007.6 |
| 20260506082504 | 7 | 298 | 1.6 | 4.8 | 0.33 | 0.66 | 0.43 | 98 | 1007.5 |
| 20260506082005 | 7 | 305 | 1.6 | 3.2 | 0.33 | 0.64 | 0.41 | 98 | 1007.3 |
| 20260506081506 | 7 | 16 | 1.6 | 3.2 | 0.33 | 0.61 | 0.38 | 98 | 1007.3 |
| 20260506081005 | 7 | 4 | 1.6 | 3.2 | 0.30 | 0.58 | 0.36 | 98 | 1007.3 |
| 20260506080506 | 7 | 5 | 0.0 | 6.4 | 0.28 | 0.56 | 0.33 | 98 | 1007.3 |
| 20260506073506 | 7 | 19 | 1.6 | 6.4 | 0.13 | 0.38 | 0.15 | 97 | 1007.6 |
| 20260506073026 | 7 | 350 | 1.6 | 6.4 | 0.10 | 0.36 | 0.13 | 97 | 1007.4 |
| 20260506072526 | 7 | 332 | 1.6 | 6.4 | 0.08 | 0.33 | 0.10 | 97 | 1007.3 |
| 20260506072027 | 7 | 22 | 1.6 | 3.2 | 0.05 | 0.30 | 0.08 | 97 | 1007.5 |
| 20260506071505 | 7 | 79 | 0.0 | 3.2 | 0.05 | 0.28 | 0.05 | 97 | 1007.5 |
| 20260506071006 | 7 | 28 | 0.0 | 3.2 | 0.05 | 0.28 | 0.05 | 97 | 1007.5 |
| 20260506070527 | 7 | 30 | 0.0 | 3.2 | 0.03 | 0.28 | 0.05 | 97 | 1007.6 |
| 20260506062506 | 7 | 235 | 1.6 | 6.4 | 0.03 | 0.25 | 0.03 | 95 | 1007.8 |
| 20260506062006 | 7 | 246 | 1.6 | 4.8 | 0.03 | 0.25 | 0.03 | 94 | 1007.8 |
| 20260506061505 | 7 | 262 | 1.6 | 4.8 | 0.03 | 0.25 | 0.03 | 94 | 1007.8 |
| 20260506061006 | 7 | 282 | 0.0 | 4.8 | 0.00 | 0.23 | 0.00 | 94 | 1007.7 |
| 20260506060525 | 7 | 28 | 0.0 | 3.2 | 0.00 | 0.23 | 0.00 | 93 | 1007.8 |
| 20260506051006 | 7 | 354 | 1.6 | 4.8 | 0.00 | 0.23 | 0.00 | 95 | 1008.3 |
| 20260506050505 | 7 | 328 | 1.6 | 4.8 | 0.00 | 0.23 | 0.00 | 96 | 1008.3 |
| 20260506045006 | 6 | 359 | 1.6 | 4.8 | 0.00 | 0.23 | 0.00 | 97 | 1008.4 |
| 20260506044506 | 6 | 358 | 1.6 | 6.4 | 0.00 | 0.23 | 0.00 | 98 | 1008.4 |
| 20260506044005 | 6 | 358 | 0.0 | 6.4 | 0.00 | 0.23 | 0.00 | 98 | 1008.4 |
| 20260506043505 | 6 | 357 | 0.0 | 3.2 | 0.00 | 0.23 | 0.00 | 98 | 1008.6 |
| 20260506043004 | 6 | 2 | 0.0 | 4.8 | 0.00 | 0.23 | 0.00 | 98 | 1008.6 |
| 20260506042504 | 6 | 8 | 0.0 | 4.8 | 0.00 | 0.23 | 0.00 | 98 | 1008.5 |
| 20260506042006 | 6 | 2 | 0.0 | 1.6 | 0.00 | 0.23 | 0.00 | 98 | 1008.6 |
| 20260506041505 | 6 | 11 | 0.0 | 3.2 | 0.00 | 0.23 | 0.00 | 98 | 1008.6 |
| 20260506041004 | 6 | 21 | 0.0 | 3.2 | 0.00 | 0.23 | 0.00 | 98 | 1008.9 |
| 20260506040527 | 6 | 32 | 0.0 | 3.2 | 0.00 | 0.23 | 0.00 | 98 | 1008.8 |
| 20260506040025 | 6 | 36 | 1.6 | 3.2 | 0.00 | 0.23 | 0.00 | 99 | 1008.8 |
| 20260506035504 | 6 | 27 | 1.6 | 3.2 | 0.00 | 0.23 | 0.00 | 99 | 1008.6 |
| 20260506035006 | 6 | 15 | 0.0 | 3.2 | 0.00 | 0.23 | 0.00 | 99 | 1008.8 |
| 20260506034526 | 6 | 12 | 0.0 | 1.6 | 0.00 | 0.23 | 0.00 | 99 | 1008.7 |
| 20260506034004 | 6 | 14 | 0.0 | 3.2 | 0.00 | 0.23 | 0.00 | 99 | 1008.8 |
| 20260506033505 | 6 | 15 | 0.0 | 1.6 | 0.00 | 0.23 | 0.00 | 99 | 1008.8 |
| 20260506033025 | 6 | 0 | 0.0 | 0.0 | 0.00 | 0.23 | 0.00 | 99 | 1008.8 |
| 20260506032504 | 6 | 0 | 0.0 | 0.0 | 0.00 | 0.23 | 0.00 | 99 | 1008.7 |
| 20260506032005 | 6 | 0 | 0.0 | 0.0 | 0.00 | 0.23 | 0.00 | 99 | 1008.7 |
| 20260506031526 | 6 | 0 | 0.0 | 0.0 | 0.00 | 0.23 | 0.00 | 99 | 1008.7 |
| 20260506031005 | 6 | 15 | 0.0 | 1.6 | 0.00 | 0.23 | 0.00 | 99 | 1008.8 |
| 20260506030504 | 6 | 15 | 0.0 | 1.6 | 0.00 | 0.23 | 0.00 | 99 | 1008.5 |
| 20260506030006 | 6 | 15 | 0.0 | 1.6 | 0.00 | 0.23 | 0.00 | 99 | 1008.8 |
| 20260506025506 | 6 | 15 | 0.0 | 1.6 | 0.00 | 0.23 | 0.00 | 99 | 1008.9 |
| 20260506025006 | 6 | 15 | 0.0 | 1.6 | 0.00 | 0.23 | 0.00 | 99 | 1009.1 |
| 20260506024525 | 6 | 15 | 0.0 | 1.6 | 0.00 | 0.23 | 0.00 | 99 | 1009.2 |
| 20260506024005 | 6 | 8 | 0.0 | 1.6 | 0.00 | 0.23 | 0.00 | 99 | 1009.2 |
| 20260506023504 | 6 | 357 | 0.0 | 1.6 | 0.00 | 0.23 | 0.00 | 99 | 1009.3 |
| 20260506023004 | 6 | 357 | 0.0 | 3.2 | 0.00 | 0.23 | 0.00 | 99 | 1009.1 |
| 20260506022505 | 6 | 358 | 0.0 | 3.2 | 0.00 | 0.23 | 0.00 | 99 | 1008.9 |
| 20260506022004 | 6 | 359 | 0.0 | 3.2 | 0.00 | 0.23 | 0.00 | 99 | 1009.1 |